Weather History for KBPK - March, 2013

Change the Weather History Date:

Wednesday, March 20, 2013

  Actual Average (KHRO) Record (KHRO)
Temperature  
Mean Temperature 40 °F 50 °F  
Max Temperature 48 °F 61 °F 90 °F (1907)
Min Temperature 32 °F 39 °F 9 °F (1914)
Degree Days  
Heating Degree Days 25 15  
Month to date heating degree days 360  
Since 1 July heating degree days 3532  
Cooling Degree Days 0 0  
Month to date cooling degree days 0  
Year to date cooling degree days 0  
Moisture  
Dew Point 18 °F    
Average Humidity 48    
Maximum Humidity 85    
Minimum Humidity 18    
Precipitation  
Precipitation 0.00 in 0.13 in 2.15 in (1955)
Month to date precipitation 2.34  
Year to date precipitation 7.54  
Snow  
Snow 0.00 in 0.10 in 1.00 in (1974)
Month to date snowfall 2.0  
Since 1 July snowfall 11.2  
Snow Depth -    
Sea Level Pressure  
Sea Level Pressure 30.22 in    
Wind  
Wind Speed 4 mph (NW)    
Max Wind Speed 17 mph    
Max Gust Speed 26 mph    
Visibility 10 miles    
Events      
T = Trace of Precipitation, MM = Missing Value Source: NWS Daily Summary

Daily Weather History Graph

Daily Weather History Graph

Search for Another Location

Airport or City:

Trip Planner

Search our weather history database for the weather conditions in past years. The results will help you decide how hot, cold, wet, or windy it might be!

Date:

Astronomy

Mar. 20, 2013 Rise Set
Actual Time 7:13 AM CDT 7:21 PM CDT
Civil Twilight 6:47 AM CDT 7:47 PM CDT
Nautical Twilight 6:17 AM CDT 8:17 PM CDT
Astronomical Twilight 5:47 AM CDT 8:48 PM CDT
Moon 1:06 PM CDT (3/20) 2:43 AM CDT (3/20)
Length of Visible Light 13h 00m
Length of Day
12h 08m
First Quarter, 59% of the Moon is Illuminated
Mar 20
First Quarter
Mar 27
Full
Apr 2
Last Quarter
Apr 10
New
Apr 18
First Quarter

Hourly Weather History & Observations

Time (CDT) Temp. Windchill Dew Point Humidity Pressure Visibility Wind Dir Wind Speed Gust Speed Precip Events Conditions
12:53 AM 39.0 °F - 25.0 °F 57% 30.25 in 10.0 mi Calm Calm - N/A   Mostly Cloudy
1:53 AM 39.0 °F - 24.1 °F 55% 30.24 in 10.0 mi Calm Calm - N/A   Clear
2:53 AM 37.0 °F - 27.0 °F 67% 30.22 in 10.0 mi Calm Calm - N/A   Clear
3:53 AM 36.0 °F - 26.1 °F 67% 30.21 in 10.0 mi Calm Calm - N/A   Clear
4:53 AM 35.1 °F - 28.9 °F 78% 30.22 in 10.0 mi Calm Calm - N/A   Clear
5:53 AM 32.0 °F 28.7 °F 28.0 °F 85% 30.23 in 10.0 mi NW 3.5 mph - N/A   Clear
6:53 AM 33.1 °F - 28.9 °F 85% 30.25 in 10.0 mi Calm Calm - N/A   Clear
7:53 AM 33.1 °F 30.0 °F 28.9 °F 85% 30.27 in 10.0 mi NW 3.5 mph - N/A   Scattered Clouds
8:48 AM 37.4 °F 32.8 °F 30.2 °F 75% 30.29 in 10.0 mi NNW 5.8 mph 16.1 mph N/A   Mostly Cloudy
8:53 AM 37.9 °F 32.7 °F 30.0 °F 73% 30.30 in 10.0 mi Variable 6.9 mph - N/A   Mostly Cloudy
9:07 AM 39.2 °F 33.0 °F 30.2 °F 70% 30.30 in 10.0 mi NNW 9.2 mph 17.3 mph N/A   Scattered Clouds
9:53 AM 39.9 °F 33.4 °F 25.0 °F 55% 30.32 in 9.0 mi NNW 10.4 mph 21.9 mph N/A   Mostly Cloudy
10:53 AM 42.1 °F 37.7 °F 19.9 °F 41% 30.33 in 10.0 mi NNW 6.9 mph 17.3 mph N/A   Mostly Cloudy
11:53 AM 44.1 °F 39.0 °F 21.0 °F 40% 30.30 in 10.0 mi WNW 9.2 mph 16.1 mph N/A   Mostly Cloudy
12:53 PM 46.0 °F 41.0 °F 18.0 °F 33% 30.27 in 10.0 mi NW 10.4 mph 21.9 mph N/A   Scattered Clouds
1:53 PM 48.9 °F - 15.1 °F 26% 30.23 in 10.0 mi WNW 9.2 mph 23.0 mph N/A   Clear
2:53 PM 48.9 °F - 10.0 °F 21% 30.20 in 10.0 mi NNW 13.8 mph 25.3 mph N/A   Clear
3:53 PM 46.9 °F - 5.0 °F 18% 30.18 in 10.0 mi NW 17.3 mph 26.5 mph N/A   Clear
4:53 PM 48.0 °F - 8.1 °F 20% 30.16 in 10.0 mi WNW 11.5 mph 24.2 mph N/A   Clear
5:53 PM 46.0 °F 41.0 °F 7.0 °F 20% 30.16 in 10.0 mi NW 10.4 mph 17.3 mph N/A   Clear
6:53 PM 43.0 °F 37.7 °F 5.0 °F 21% 30.16 in 10.0 mi NW 9.2 mph 18.4 mph N/A   Clear
7:53 PM 39.9 °F 34.5 °F 6.1 °F 25% 30.14 in 10.0 mi NW 8.1 mph - N/A   Clear
8:53 PM 37.0 °F 32.4 °F 5.0 °F 26% 30.14 in 10.0 mi NW 5.8 mph - N/A   Clear
9:53 PM 35.1 °F 31.0 °F 8.1 °F 33% 30.14 in 10.0 mi NW 4.6 mph - N/A   Clear
10:53 PM 34.0 °F 29.8 °F 8.1 °F 34% 30.14 in 10.0 mi NW 4.6 mph - N/A   Clear
11:53 PM 32.0 °F 28.7 °F 8.1 °F 37% 30.15 in 10.0 mi North 3.5 mph - N/A   Clear